Toledo, OH

5:03 PM EST on February 20, 2018 (GMT -0500)
Toledo Express

Weather History for KTOL - August, 2014

Change the Weather History Date:

Tuesday, August 12, 2014

  Actual Average Record
Temperature  
Mean Temperature 69 °F 72 °F  
Max Temperature 77 °F 83 °F 97 °F (1881)
Min Temperature 61 °F 62 °F 45 °F (1967)
Degree Days  
Heating Degree Days 0 0  
Month to date heating degree days 0 0  
Since 1 June heating degree days 25 38  
Since 1 July heating degree days 9 3  
Cooling Degree Days 4 7  
Month to date cooling degree days 64 93  
Year to date cooling degree days 454 581  
Since 1 June cooling degree days 392 528  
Growing Degree Days 20 (Base 50)    
Moisture  
Dew Point 63 °F    
Average Humidity 80    
Maximum Humidity 100    
Minimum Humidity 60    
Precipitation  
Precipitation 0.01 in 0.10 in 1.54 in (1990)
Month to date precipitation 2.14 1.27  
Year to date precipitation 20.80 21.44  
Snow  
Snow 0.00 in 0.00 in - ()
Month to date snowfall 0.0 0.0  
Since 1 June snowfall 0.0 0.0  
Since 1 July snowfall 0.0 0.0  
Snow Depth 0.00 in    
Sea Level Pressure  
Sea Level Pressure 29.75 in    
Wind  
Wind Speed 10 mph (WSW)    
Max Wind Speed 22 mph    
Max Gust Speed 29 mph    
Visibility 7 miles    
Events Rain    
T = Trace of Precipitation, MM = Missing Value Source: NWS Daily Summary

Daily Weather History Graph

Daily Weather History Graph

Search for Another Location

Airport or City:

Trip Planner

Search our weather history database for the weather conditions in past years. The results will help you decide how hot, cold, wet, or windy it might be!

Date:

Astronomy

Aug. 12, 2014 Rise Set
Actual Time 6:40 AM EDT 8:38 PM EDT
Civil Twilight 6:10 AM EDT 9:09 PM EDT
Nautical Twilight 5:33 AM EDT 9:45 PM EDT
Astronomical Twilight 4:53 AM EDT 10:25 PM EDT
Moon 9:42 PM EDT (8/12) 8:59 AM EDT (8/12)
Length of Visible Light 14h 58m
Length of Day
13h 58m
Waning Gibbous, 95% of the Moon is Illuminated
Aug 12
Waning Gibbous
Aug 17
Last Quarter
Aug 25
New
Sep 2
First Quarter
Sep 8
Full

Hourly Weather History & Observations

Time (EDT) Temp. Dew Point Humidity Pressure Visibility Wind Dir Wind Speed Gust Speed Precip Events Conditions
12:52 AM 64.9 °F 64.0 °F 97% 29.74 in 7.0 mi SW 4.6 mph - N/A   Clear
1:52 AM 64.9 °F 64.0 °F 97% 29.74 in 7.0 mi SW 5.8 mph - N/A   Clear
2:52 AM 64.9 °F 64.0 °F 97% 29.73 in 7.0 mi Calm Calm - N/A   Clear
3:52 AM 64.9 °F 64.0 °F 97% 29.71 in 5.0 mi SW 4.6 mph - N/A   Partly Cloudy
4:52 AM 64.4 °F 64.4 °F 100% 29.71 in 4.0 mi SSW 5.8 mph - N/A   Clear
5:52 AM 64.9 °F 64.0 °F 97% 29.70 in 4.0 mi SW 4.6 mph - N/A   Mostly Cloudy
6:33 AM 64.4 °F 64.4 °F 100% 29.71 in 4.0 mi SW 4.6 mph - N/A   Overcast
6:48 AM 66.2 °F 64.4 °F 94% 29.71 in 4.0 mi SSW 3.5 mph - N/A   Overcast
6:52 AM 66.0 °F 64.9 °F 96% 29.70 in 4.0 mi SW 4.6 mph - N/A   Overcast
6:59 AM 66.2 °F 64.4 °F 94% 29.72 in 1.0 mi SSW 5.8 mph - N/A   Overcast
7:52 AM 66.9 °F 66.0 °F 97% 29.72 in 1.0 mi WSW 8.1 mph - N/A   Overcast
8:52 AM 68.0 °F 66.0 °F 93% 29.72 in 2.5 mi WSW 10.4 mph - N/A   Overcast
9:02 AM 68.0 °F 66.2 °F 94% 29.72 in 3.0 mi WSW 11.5 mph - N/A   Overcast
9:40 AM 69.8 °F 66.2 °F 88% 29.71 in 4.0 mi SW 8.1 mph - N/A   Overcast
9:52 AM 70.0 °F 66.0 °F 87% 29.71 in 5.0 mi WSW 10.4 mph - N/A   Overcast
10:52 AM 73.0 °F 64.9 °F 76% 29.71 in 7.0 mi SW 10.4 mph - N/A   Mostly Cloudy
11:01 AM 73.4 °F 66.2 °F 78% 29.72 in 8.0 mi West 9.2 mph - N/A   Mostly Cloudy
11:52 AM 73.9 °F 64.9 °F 73% 29.71 in 9.0 mi SW 10.4 mph - N/A   Mostly Cloudy
1:52 PM 75.9 °F 61.0 °F 60% 29.70 in 10.0 mi WSW 16.1 mph - N/A   Mostly Cloudy
2:26 PM 75.2 °F 62.6 °F 65% 29.71 in 10.0 mi WSW 17.3 mph - N/A   Mostly Cloudy
2:35 PM 75.2 °F 62.6 °F 65% 29.72 in 10.0 mi WSW 16.1 mph - N/A   Mostly Cloudy
2:52 PM 73.9 °F 62.1 °F 66% 29.71 in 10.0 mi West 15.0 mph - 0.00 in Rain Light Rain
3:52 PM 73.9 °F 62.1 °F 66% 29.72 in 10.0 mi West 15.0 mph 24.2 mph 0.00 in   Mostly Cloudy
4:52 PM 73.9 °F 59.0 °F 59% 29.73 in 10.0 mi West 17.3 mph - N/A   Mostly Cloudy
5:52 PM 71.1 °F 57.9 °F 63% 29.75 in 10.0 mi West 17.3 mph 24.2 mph N/A   Overcast
6:52 PM 70.0 °F 59.0 °F 68% 29.77 in 10.0 mi West 10.4 mph 19.6 mph N/A   Overcast
7:52 PM 66.0 °F 59.0 °F 78% 29.79 in 10.0 mi WNW 10.4 mph - N/A   Overcast
8:52 PM 64.9 °F 60.1 °F 84% 29.81 in 10.0 mi West 10.4 mph - N/A   Overcast
9:38 PM 62.6 °F 60.8 °F 94% 29.85 in 4.0 mi West 12.7 mph 20.7 mph 0.00 in Rain Rain
9:52 PM 63.0 °F 61.0 °F 93% 29.85 in 5.0 mi WNW 11.5 mph - 0.01 in   Overcast
10:01 PM 62.6 °F 60.8 °F 94% 29.86 in 9.0 mi WNW 10.4 mph - N/A   Overcast
10:19 PM 62.6 °F 60.8 °F 94% 29.86 in 10.0 mi WNW 10.4 mph - N/A   Overcast
10:52 PM 62.1 °F 60.1 °F 93% 29.86 in 10.0 mi West 9.2 mph - N/A   Overcast
11:52 PM 62.1 °F 59.0 °F 90% 29.87 in 10.0 mi West 8.1 mph - N/A   Overcast